1509246001.02,47444,9.44,71700.8,-5.53,-6.09,-6.05,0,*58
1509246002.22,47445,9.44,71706.8,-5.51,-6.05,-6.05,0,*57
1509246003.41,47446,9.44,71714.5,-5.51,-6.05,-6.01,0,*50
1509246004.64,47447,9.44,71718.5,-5.53,-6.09,-6.09,0,*57
1509246005.83,47448,9.44,71716.3,-5.51,-6.09,-6.05,0,*56
1509246007.03,47449,9.44,71712.0,-5.51,-6.05,-6.01,0,*5F
1509246008.22,47450,9.44,71710.8,-5.51,-6.01,-6.01,0,*53
1509246009.44,47451,9.44,71708.3,-5.53,-6.05,-6.09,0,*5C
1509246010.63,47452,9.44,71704.5,-5.51,-6.05,-6.05,0,*51
1509246011.85,47453,9.44,71690.3,-5.53,-6.05,-6.05,0,*52
1509246013.07,47454,9.44,71676.5,-5.53,-6.05,-6.05,0,*55
1509246014.26,47455,9.44,71674.0,-5.51,-6.05,-6.01,0,*52
1509246015.46,47456,9.44,71668.3,-5.51,-6.05,-6.05,0,*55
1509246016.68,47457,9.44,71668.8,-5.53,-6.09,-6.09,0,*56
1509246017.91,47458,9.44,71674.0,-5.53,-6.09,-6.09,0,*59
1509246019.13,47459,9.44,71694.3,-5.53,-6.09,-6.05,0,*54
1509246020.33,47460,9.44,71690.3,-5.51,-6.01,-6.01,0,*50
1509246021.55,47461,9.44,71704.0,-5.53,-6.05,-6.09,0,*5F
1509246022.77,47462,9.44,71708.8,-5.53,-6.05,-6.09,0,*5C
1509246023.99,47463,9.44,71700.5,-5.53,-6.05,-6.09,0,*5D
1509246025.18,47464,9.44,71678.0,-5.51,-6.05,-6.05,0,*54
1509246026.38,47465,9.44,71682.0,-5.51,-6.01,-6.05,0,*51
1509246027.57,47466,9.44,71682.5,-5.51,-6.01,-6.05,0,*52
1509246028.79,47467,9.44,71674.5,-5.53,-6.05,-6.05,0,*55
1509246030.02,47468,9.44,71674.5,-5.53,-6.09,-6.09,0,*5A
1509246031.21,47469,9.44,71672.3,-5.51,-6.05,-6.05,0,*59
1509246032.4,47470,9.44,71706.8,-5.51,-6.01,-6.05,0,*55
1509246033.63,47471,9.44,71696.5,-5.53,-6.09,-6.09,0,*52
1509246034.82,47472,9.44,71696.8,-5.51,-6.05,-6.05,0,*53
1509246036.04,47473,9.44,71696.3,-5.53,-6.09,-6.09,0,*50
1509246037.27,47474,9.44,71682.3,-5.53,-6.09,-6.05,0,*5B
1509246038.47,47475,9.44,71678.3,-5.51,-6.09,-6.09,0,*54
1509246039.69,47476,9.44,71674.8,-5.53,-6.09,-6.09,0,*55
1509246040.89,47477,9.44,71686.0,-5.51,-6.05,-6.05,0,*56
1509246042.08,47478,9.44,71688.0,-5.51,-6.05,-6.05,0,*59
1509246043.27,47479,9.44,71694.0,-5.51,-6.05,-6.05,0,*58
1509246044.46,47480,9.44,71694.3,-5.51,-6.05,-6.05,0,*5E
1509246045.71,47481,9.44,71672.3,-5.53,-6.19,-6.05,0,*50
1509246046.93,47482,9.44,71674.5,-5.53,-6.05,-6.09,0,*52
1509246048.18,47483,9.44,71672.0,-5.53,-6.19,-6.05,0,*52
1509246049.37,47484,9.44,71682.8,-5.51,-6.05,-6.01,0,*5E
1509246050.6,47485,9.44,71686.5,-5.53,-6.09,-6.09,0,*59
1509246051.79,47486,9.44,71668.8,-5.51,-6.01,-6.05,0,*5C
1509246053.01,47487,9.44,71682.8,-5.53,-6.05,-6.09,0,*57
1509246054.2,47488,9.44,71690.5,-5.51,-6.05,-6.01,0,*52
1509246055.4,47489,9.44,71682.3,-5.51,-6.05,-6.05,0,*57
1509246056.62,47490,9.44,71692.0,-5.53,-6.05,-6.09,0,*51
1509246057.81,47491,9.44,71672.8,-5.51,-6.01,-6.05,0,*5A
1509246059.03,47492,9.44,71676.5,-5.53,-6.05,-6.09,0,*53
1509246060.23,47493,9.44,71682.5,-5.51,-6.01,-6.13,0,*5F
1509246061.42,47494,9.44,71690.3,-5.51,-6.05,-6.01,0,*5F
1509246062.65,47495,9.44,71686.3,-5.53,-6.09,-6.09,0,*58
1509246063.87,47496,9.44,71688.3,-5.53,-6.09,-6.05,0,*57
1509246065.06,47497,9.44,71684.5,-5.51,-6.05,-6.01,0,*5C
1509246066.29,47498,9.44,71694.0,-5.53,-6.09,-6.05,0,*59
1509246067.48,47499,9.44,71692.3,-5.51,-6.05,-6.01,0,*52
1509246068.68,47500,9.44,71684.0,-5.51,-6.01,-6.05,0,*53
1509246069.87,47501,9.44,71684.3,-5.51,-6.05,-6.05,0,*56
1509246071.06,47502,9.44,71684.0,-5.51,-6.05,-6.01,0,*51
1509246072.25,47503,9.44,71664.5,-5.51,-6.05,-6.05,0,*54
1509246073.47,47504,9.44,71664.8,-5.53,-6.05,-6.09,0,*5D
1509246074.67,47505,9.44,71666.8,-5.51,-6.09,-6.09,0,*52
1509246075.87,47506,9.44,71654.8,-5.51,-6.01,-6.05,0,*55
1509246077.06,47507,9.44,71654.0,-5.51,-6.01,-6.01,0,*50
1509246078.31,47508,9.44,71658.0,-5.53,-6.19,-6.09,0,*5C
1509246079.5,47509,9.44,71656.5,-5.51,-6.05,-6.05,0,*5E
1509246080.7,47510,9.44,71656.5,-5.51,-6.05,-6.01,0,*52
1509246081.89,47511,9.44,71666.0,-5.51,-6.13,-6.05,0,*50
1509246083.14,47512,9.44,71678.5,-5.53,-6.19,-6.09,0,*57
1509246084.33,47513,9.44,71674.5,-5.51,-6.05,-6.01,0,*51
1509246085.53,47514,9.44,71676.8,-5.51,-6.01,-6.01,0,*52
1509246086.75,47515,9.44,71668.3,-5.53,-6.05,-6.05,0,*51
1509246087.94,47516,9.44,71662.8,-5.51,-6.05,-6.01,0,*54
1509246089.13,47517,9.44,71648.0,-5.51,-6.05,-6.05,0,*51
1509246090.33,47518,9.44,71656.5,-5.51,-6.05,-6.05,0,*5E
1509246091.52,47519,9.44,71652.3,-5.51,-6.05,-6.01,0,*5B
1509246092.74,47520,9.44,71648.8,-5.53,-6.09,-6.05,0,*5B
1509246093.94,47521,9.44,71664.3,-5.51,-6.01,-6.05,0,*50
1509246095.16,47522,9.44,71664.3,-5.51,-6.19,-6.05,0,*5A
1509246096.38,47523,9.44,71688.8,-5.53,-6.09,-6.05,0,*58
1509246097.6,47524,9.44,71692.5,-5.49,-6.01,-6.05,0,*5C
1509246098.8,47525,9.44,71672.8,-5.51,-6.09,-6.09,0,*50
1509246099.99,47526,9.44,71668.8,-5.51,-6.05,-6.05,0,*53
1509246101.19,47527,9.44,71658.3,-5.51,-6.05,-6.05,0,*52
1509246102.38,47528,9.44,71654.3,-5.51,-6.05,-6.01,0,*59
1509246103.57,47529,9.44,71658.8,-5.51,-6.05,-6.09,0,*50
1509246104.77,47530,9.44,71662.0,-5.51,-6.13,-6.05,0,*53
1509246105.96,47531,9.44,71664.3,-5.51,-6.01,-6.05,0,*51
1509246107.16,47532,9.44,71668.5,-5.51,-6.13,-6.05,0,*51
1509246108.35,47533,9.44,71676.8,-5.51,-6.05,-6.05,0,*57
1509246109.54,47534,9.44,71672.5,-5.51,-6.05,-6.01,0,*54
1509246110.73,47535,9.44,71676.5,-5.51,-6.05,-6.01,0,*55
1509246111.93,47536,9.44,71682.5,-5.51,-6.05,-6.05,0,*52
1509246113.12,47537,9.44,71678.8,-5.51,-6.05,-6.05,0,*53
1509246114.31,47538,9.44,71678.8,-5.51,-6.05,-6.05,0,*5C
1509246115.53,47539,9.44,71676.0,-5.53,-6.05,-6.09,0,*53
1509246116.75,47540,9.44,71676.3,-5.53,-6.09,-6.09,0,*51
1509246117.95,47541,9.44,71674.5,-5.51,-6.05,-6.05,0,*52
1509246119.14,47542,9.44,71676.5,-5.51,-6.13,-6.05,0,*56
1509246120.33,47543,9.44,71682.0,-5.51,-6.05,-6.05,0,*50
1509246121.53,47544,9.44,71676.8,-5.51,-6.05,-6.05,0,*57
1509246122.72,47545,9.44,71662.0,-5.51,-6.05,-6.01,0,*52
1509246123.91,47546,9.44,71656.0,-5.51,-6.05,-6.05,0,*55
1509246125.11,47547,9.44,71664.3,-5.51,-6.01,-6.05,0,*50
1509246126.3,47548,9.44,71668.3,-5.51,-6.13,-6.01,0,*58
1509246127.49,47549,9.44,71660.0,-5.51,-6.05,-6.05,0,*5A
1509246128.68,47550,9.44,71662.8,-5.51,-6.05,-6.05,0,*52
1509246129.88,47551,9.44,71664.8,-5.51,-6.05,-6.05,0,*53
1509246131.07,47552,9.44,71664.0,-5.51,-6.01,-6.05,0,*54
1509246132.27,47553,9.44,71660.3,-5.51,-6.13,-6.01,0,*52
1509246133.46,47554,9.44,71660.5,-5.51,-6.05,-6.05,0,*56
1509246134.65,47555,9.44,71676.3,-5.51,-6.05,-6.01,0,*53
1509246135.85,47556,9.44,71670.8,-5.51,-6.01,-6.05,0,*50
1509246137.04,47557,9.44,71668.0,-5.51,-6.05,-6.01,0,*51
1509246138.23,47558,9.44,71662.5,-5.51,-6.05,-6.01,0,*5E
1509246139.43,47559,9.44,71656.8,-5.51,-6.05,-6.05,0,*5B
1509246140.62,47560,9.44,71648.5,-5.51,-6.05,-6.05,0,*51
1509246141.81,47561,9.44,71642.3,-5.51,-6.01,-6.05,0,*54
1509246143.04,47562,9.44,71658.0,-5.53,-6.09,-6.09,0,*51
1509246144.23,47563,9.44,71658.8,-5.51,-6.05,-6.05,0,*52
1509246145.42,47564,9.44,71660.5,-5.51,-6.01,-6.05,0,*51
1509246146.62,47565,9.44,71652.3,-5.51,-6.05,-6.05,0,*54
1509246147.81,47566,9.44,71660.3,-5.51,-6.05,-6.05,0,*57
1509246149.0,47567,9.44,71658.5,-5.51,-6.05,-6.05,0,*56
1509246150.19,47568,9.44,71656.8,-5.51,-6.05,-6.05,0,*59
1509246151.39,47569,9.44,71638.8,-5.51,-6.01,-6.05,0,*5C
1509246152.58,47570,9.44,71648.5,-5.51,-6.05,-6.13,0,*57
1509246153.77,47571,9.44,71652.5,-5.51,-6.05,-6.05,0,*51
1509246154.97,47572,9.44,71636.3,-5.51,-6.01,-6.05,0,*56
1509246156.16,47573,9.44,71624.0,-5.51,-6.05,-6.09,0,*5F
1509246157.35,47574,9.44,71628.0,-5.51,-6.05,-6.01,0,*50
1509246158.54,47575,9.44,71628.5,-5.51,-6.05,-6.13,0,*52
1509246159.74,47576,9.44,71632.3,-5.51,-6.05,-6.05,0,*56
1509246160.93,47577,9.44,71624.5,-5.51,-6.05,-6.05,0,*57
1509246162.12,47578,9.44,71628.5,-5.51,-6.05,-6.01,0,*5C
1509246163.31,47579,9.44,71636.3,-5.51,-6.05,-6.05,0,*59
1509246164.5,47580,9.44,71642.8,-5.51,-6.05,-6.13,0,*58
1509246165.7,47581,9.44,71652.3,-5.51,-6.05,-6.01,0,*5A
1509246166.89,47582,9.44,71654.5,-5.51,-6.05,-6.05,0,*5D
1509246168.11,47583,9.44,71646.3,-5.49,-6.01,-6.01,0,*55
1509246169.32,47584,9.44,71638.0,-5.49,-6.05,-6.05,0,*52
1509246170.52,47585,9.44,71622.5,-5.51,-6.05,-6.01,0,*5E
1509246171.71,47586,9.44,71628.0,-5.51,-6.01,-6.05,0,*5D
1509246172.91,47587,9.44,71632.3,-5.51,-6.05,-6.01,0,*5C
1509246174.1,47588,9.44,71646.5,-5.51,-6.01,-6.01,0,*57
1509246175.29,47589,9.44,71640.3,-5.51,-6.05,-6.05,0,*56
1509246176.49,47590,9.44,71646.5,-5.51,-6.05,-6.05,0,*5E
1509246177.68,47591,9.44,71654.5,-5.51,-6.13,-6.01,0,*5C
1509246178.87,47592,9.44,71654.8,-5.51,-6.05,-6.05,0,*5C
1509246180.07,47593,9.44,71634.5,-5.51,-6.05,-6.05,0,*5D
1509246181.26,47594,9.44,71628.5,-5.51,-6.01,-6.05,0,*5E
1509246182.48,47595,9.44,71628.3,-5.49,-6.05,-6.01,0,*56
1509246183.7,47596,9.44,71636.5,-5.49,-6.01,-6.01,0,*51
1509246184.89,47597,9.44,71648.0,-5.51,-6.05,-6.05,0,*59
1509246186.11,47598,9.44,71674.3,-5.49,-6.01,-6.01,0,*5F
1509246187.33,47599,9.44,71670.8,-5.49,-6.05,-6.05,0,*5E
1509246188.52,47600,9.44,71666.5,-5.51,-6.05,-6.05,0,*54
1509246189.74,47601,9.44,71672.8,-5.53,-6.09,-6.09,0,*57
1509246190.94,47602,9.44,71668.8,-5.51,-6.01,-6.05,0,*52
1509246192.13,47603,9.44,71678.0,-5.51,-6.01,-6.05,0,*53
1509246193.33,47604,9.44,71664.8,-5.51,-6.01,-6.05,0,*54
1509246194.53,47605,9.44,71668.0,-5.51,-6.01,-6.05,0,*55
1509246195.72,47606,9.44,71662.3,-5.51,-6.05,-6.01,0,*56
1509246196.91,47607,9.44,71658.8,-5.51,-6.01,-6.01,0,*53
1509246198.11,47608,9.44,71676.5,-5.51,-6.01,-6.01,0,*5C
1509246199.33,47609,9.44,71652.8,-5.49,-6.05,-6.01,0,*50
1509246200.54,47610,9.44,71658.0,-5.49,-6.05,-6.01,0,*58
1509246201.76,47611,9.44,71658.0,-5.49,-6.01,-6.01,0,*5D
1509246202.98,47612,9.44,71654.8,-5.49,-6.05,-6.01,0,*5A
1509246204.2,47613,9.44,71646.0,-5.49,-6.05,-6.05,0,*5F
1509246205.42,47614,9.44,71634.0,-5.49,-6.01,-6.05,0,*5C
1509246206.63,47615,9.44,71634.3,-5.49,-6.05,-6.01,0,*5D
1509246207.83,47616,9.44,71638.8,-5.51,-6.05,-6.05,0,*53
1509246209.02,47617,9.44,71630.3,-5.51,-6.01,-6.01,0,*52
1509246210.24,47618,9.44,71632.3,-5.49,-6.01,-6.01,0,*54
1509246211.44,47619,9.5,71638.5,-5.51,-6.01,-6.01,0,*5C
1509246212.64,47620,9.44,71642.3,-5.51,-6.01,-6.01,0,*56
1509246213.83,47621,9.44,71644.3,-5.51,-6.01,-6.01,0,*57
1509246215.03,47622,9.44,71646.0,-5.51,-6.01,-6.01,0,*54
1509246216.22,47623,9.44,71642.5,-5.51,-6.01,-6.01,0,*55
1509246217.44,47624,9.44,71654.0,-5.49,-6.01,-6.05,0,*5F
1509246218.67,47625,9.44,71662.3,-5.45,-5.97,-5.97,0,*56
1509246219.91,47626,9.44,71664.0,-5.49,-6.05,-5.93,0,*55
1509246221.16,47627,9.44,71664.5,-5.49,-6.01,-5.93,0,*50
1509246222.41,47628,9.44,71662.3,-5.45,-5.89,-5.97,0,*54
1509246223.63,47629,9.44,71660.0,-5.49,-6.01,-6.05,0,*52
1509246224.85,47630,9.44,71670.5,-5.49,-6.01,-6.01,0,*5E
1509246226.07,47631,9.44,71660.8,-5.45,-5.97,-6.01,0,*5F
1509246227.3,47632,9.44,71662.0,-5.45,-5.97,-6.01,0,*5C
1509246228.51,47633,9.44,71672.8,-5.49,-6.05,-6.01,0,*59
1509246229.73,47634,9.44,71666.0,-5.49,-6.01,-6.01,0,*5A
1509246230.95,47635,9.44,71666.0,-5.49,-6.01,-6.01,0,*5B
1509246232.2,47636,9.44,71656.5,-5.49,-6.01,-5.93,0,*50
1509246233.42,47637,9.44,71664.0,-5.49,-6.01,-6.01,0,*59
1509246234.65,47638,9.44,71664.0,-5.49,-6.01,-6.01,0,*56
1509246235.87,47639,9.44,71664.0,-5.45,-5.97,-6.01,0,*57
1509246237.09,47640,9.44,71658.3,-5.49,-6.01,-6.05,0,*5D
1509246238.31,47641,9.44,71658.5,-5.45,-5.97,-5.97,0,*54
1509246239.57,47642,9.44,71650.8,-5.45,-5.97,-5.89,0,*58
1509246240.79,47643,9.44,71656.8,-5.49,-6.01,-6.05,0,*5E
1509246242.01,47644,9.44,71664.3,-5.49,-6.01,-6.01,0,*5D
1509246243.22,47645,9.44,71662.8,-5.49,-6.05,-6.05,0,*5C
1509246244.47,47646,9.44,71660.3,-5.49,-6.05,-5.93,0,*53
1509246245.69,47647,9.44,71664.8,-5.45,-6.01,-5.97,0,*5E
1509246246.91,47648,9.44,71662.5,-5.45,-6.01,-6.01,0,*5D
1509246248.14,47649,9.44,71666.8,-5.49,-6.01,-6.01,0,*50
1509246249.36,47650,9.44,71658.3,-5.45,-5.97,-5.97,0,*54
1509246250.57,47651,9.44,71668.0,-5.49,-6.05,-6.01,0,*5D
1509246251.8,47652,9.44,71652.8,-5.45,-5.97,-5.97,0,*56
1509246253.02,47653,9.44,71654.8,-5.49,-6.01,-6.05,0,*5F
1509246254.24,47654,9.44,71674.8,-5.49,-6.01,-6.05,0,*58
1509246255.45,47655,9.44,71674.5,-5.49,-6.05,-6.05,0,*5D
1509246256.68,47656,9.44,71678.0,-5.45,-5.97,-5.97,0,*52
1509246257.9,47657,9.44,71682.5,-5.49,-6.01,-6.05,0,*5B
1509246259.12,47658,9.44,71686.3,-5.45,-5.97,-5.97,0,*5C
1509246260.34,47659,9.44,71678.0,-5.45,-5.97,-5.97,0,*5D
1509246261.56,47660,9.44,71672.5,-5.49,-6.05,-6.01,0,*5F
1509246262.78,47661,9.44,71672.0,-5.49,-6.05,-6.01,0,*5E
1509246263.99,47662,9.44,71668.8,-5.49,-6.05,-6.05,0,*59
1509246265.21,47663,9.44,71672.5,-5.49,-6.01,-6.01,0,*58
1509246266.43,47664,9.44,71664.5,-5.49,-6.05,-6.01,0,*5B
1509246267.65,47665,9.44,71668.8,-5.45,-5.97,-5.97,0,*52
1509246268.91,47666,9.44,71676.5,-5.45,-5.97,-5.89,0,*5E
1509246270.13,47667,9.44,71674.3,-5.49,-6.01,-6.01,0,*5C
1509246271.35,47668,9.44,71682.0,-5.45,-5.97,-6.01,0,*53
1509246272.57,47669,9.44,71668.0,-5.49,-6.01,-6.01,0,*52
1509246273.79,47670,9.44,71660.5,-5.49,-6.05,-6.01,0,*5E
1509246275.01,47671,9.44,71654.8,-5.45,-5.97,-5.97,0,*57
1509246276.23,47672,9.44,71644.5,-5.49,-6.05,-6.05,0,*58
1509246277.45,47673,9.44,71658.8,-5.45,-6.01,-6.05,0,*51
1509246278.67,47674,9.44,71668.3,-5.45,-5.97,-5.97,0,*52
1509246279.9,47675,9.44,71672.5,-5.45,-6.01,-5.97,0,*5F
1509246281.12,47676,9.44,71682.3,-5.45,-5.97,-5.97,0,*50
1509246282.34,47677,9.44,71684.8,-5.49,-6.01,-6.05,0,*59
1509246283.55,47678,9.44,71688.8,-5.49,-6.05,-6.01,0,*56
1509246284.77,47679,9.44,71684.0,-5.49,-6.05,-6.01,0,*57
1509246285.99,47680,9.44,71688.0,-5.45,-5.97,-5.97,0,*59
1509246287.21,47681,9.44,71688.3,-5.49,-6.05,-6.05,0,*54
1509246288.43,47682,9.44,71682.5,-5.45,-6.01,-5.97,0,*57
1509246289.66,47683,9.44,71672.5,-5.45,-5.97,-5.97,0,*5A
1509246290.88,47684,9.44,71670.8,-5.45,-6.01,-5.97,0,*51
1509246292.1,47685,9.44,71674.0,-5.45,-6.01,-5.97,0,*50
1509246293.33,47686,9.44,71678.0,-5.45,-5.97,-5.97,0,*5F
1509246294.55,47687,9.44,71668.0,-5.45,-5.97,-6.01,0,*52
1509246295.77,47688,9.44,71672.0,-5.45,-5.97,-5.97,0,*51
1509246296.99,47689,9.44,71676.0,-5.49,-6.05,-6.05,0,*5C
1509246298.21,47690,9.44,71670.3,-5.45,-5.97,-6.01,0,*54
1509246299.43,47691,9.44,71656.0,-5.49,-6.01,-6.01,0,*55
1509246300.65,47692,9.44,71650.8,-5.45,-6.01,-5.97,0,*56
1509246301.88,47693,9.44,71642.0,-5.45,-5.97,-6.01,0,*57
1509246303.1,47694,9.44,71638.0,-5.45,-6.01,-5.97,0,*50
1509246304.32,47695,9.44,71646.3,-5.45,-6.01,-5.97,0,*51
1509246305.55,47696,9.44,71656.0,-5.45,-5.97,-5.97,0,*5E
1509246306.77,47697,9.44,71660.5,-5.45,-6.01,-6.01,0,*5F
1509246307.99,47698,9.44,71658.5,-5.45,-6.01,-5.97,0,*5C
1509246309.22,47699,9.44,71670.0,-5.45,-5.97,-6.01,0,*5D
1509246310.44,47700,9.44,71668.3,-5.45,-6.01,-6.01,0,*50
1509246311.67,47701,9.44,71676.0,-5.45,-6.09,-5.97,0,*55
1509246312.89,47702,9.44,71674.8,-5.45,-6.01,-5.97,0,*5E
1509246314.11,47703,9.44,71678.5,-5.45,-6.01,-5.97,0,*5F
1509246315.34,47704,9.44,71668.5,-5.45,-6.01,-5.97,0,*58
1509246316.56,47705,9.44,71666.0,-5.45,-6.01,-5.97,0,*59
1509246317.78,47706,9.44,71658.8,-5.45,-5.97,-6.01,0,*5A
1509246319.03,47707,9.44,71652.0,-5.45,-5.89,-5.97,0,*58
1509246320.26,47708,9.44,71648.5,-5.45,-6.01,-6.01,0,*58
1509246321.48,47709,9.44,71636.0,-5.45,-5.97,-5.97,0,*59
1509246322.7,47710,9.44,71648.0,-5.45,-6.01,-5.97,0,*5D
1509246323.93,47711,9.44,71656.3,-5.45,-6.01,-6.01,0,*50
1509246325.15,47712,9.44,71658.0,-5.45,-6.01,-5.97,0,*5F
1509246326.37,47713,9.44,71658.3,-5.45,-5.97,-5.97,0,*52
1509246327.6,47714,9.44,71666.8,-5.45,-5.97,-6.01,0,*59
1509246328.82,47715,9.44,71662.0,-5.45,-5.97,-6.01,0,*58
1509246330.04,47716,9.44,71672.5,-5.49,-6.05,-6.05,0,*5B
1509246331.26,47717,9.44,71676.0,-5.49,-6.01,-5.97,0,*56
1509246332.48,47718,9.44,71682.3,-5.45,-5.97,-5.97,0,*59
1509246333.7,47719,9.44,71670.8,-5.45,-5.97,-5.97,0,*58
1509246334.92,47720,9.44,71662.5,-5.45,-5.97,-5.97,0,*52
1509246336.15,47721,9.44,71668.3,-5.45,-5.97,-5.97,0,*53
1509246337.37,47722,9.44,71670.0,-5.45,-5.97,-6.05,0,*58
1509246338.59,47723,9.44,71662.0,-5.45,-5.97,-6.01,0,*5D
1509246339.81,47724,9.44,71670.3,-5.49,-6.05,-6.05,0,*5A
1509246341.03,47725,9.44,71670.5,-5.45,-6.01,-6.01,0,*57
1509246342.26,47726,9.44,71658.3,-5.43,-5.97,-5.93,0,*56
1509246343.48,47727,9.44,71668.0,-5.45,-6.01,-6.01,0,*55
1509246344.71,47728,9.44,71658.8,-5.45,-5.97,-6.01,0,*56
1509246345.96,47729,9.44,71672.8,-5.43,-5.93,-5.93,0,*5D
1509246347.18,47730,9.44,71668.8,-5.45,-5.97,-5.97,0,*53
1509246348.41,47731,9.5,71670.0,-5.45,-6.01,-5.97,0,*5E
1509246349.63,47732,9.44,71672.3,-5.45,-6.01,-6.01,0,*51
1509246350.85,47733,9.44,71672.5,-5.45,-5.97,-5.97,0,*50
1509246352.07,47734,9.44,71684.8,-5.45,-6.01,-6.01,0,*57
1509246353.3,47735,9.44,71696.5,-5.45,-6.01,-5.97,0,*5A
1509246354.52,47736,9.44,71712.8,-5.45,-6.01,-6.01,0,*55
1509246355.75,47737,9.44,71690.5,-5.45,-6.01,-6.01,0,*54
1509246356.97,47738,9.44,71672.3,-5.45,-6.01,-5.97,0,*57
1509246358.19,47739,9.44,71654.3,-5.45,-6.01,-6.01,0,*5A
1509246359.42,47740,9.44,71650.0,-5.45,-6.01,-5.97,0,*58
1509246360.64,47741,9.44,71650.0,-5.45,-6.01,-5.97,0,*59
1509246361.86,47742,9.44,71640.0,-5.45,-6.01,-5.97,0,*5A
1509246363.09,47743,9.44,71652.0,-5.45,-6.01,-6.01,0,*57
1509246364.31,47744,9.44,71664.3,-5.45,-5.97,-6.01,0,*5C
1509246365.53,47745,9.44,71648.3,-5.45,-5.97,-6.01,0,*5D
1509246366.76,47746,9.44,71652.8,-5.45,-6.01,-5.97,0,*5E
1509246367.98,47747,9.44,71656.3,-5.45,-5.97,-6.01,0,*5F
1509246369.2,47748,9.44,71660.5,-5.45,-6.01,-5.97,0,*50
1509246370.43,47749,9.44,71660.0,-5.45,-6.01,-6.01,0,*5D
1509246371.65,47750,9.44,71664.3,-5.45,-5.97,-5.97,0,*55
1509246372.87,47751,9.44,71680.5,-5.45,-5.97,-6.01,0,*58
1509246374.1,47752,9.44,71676.3,-5.45,-5.97,-5.97,0,*57
1509246375.32,47753,9.44,71666.5,-5.45,-5.97,-5.97,0,*56
1509246376.54,47754,9.44,71648.0,-5.45,-6.01,-5.97,0,*5D
1509246377.77,47755,9.44,71664.5,-5.45,-6.01,-5.97,0,*5C
1509246378.99,47756,9.44,71648.8,-5.45,-5.97,-6.01,0,*5F
1509246380.22,47757,9.44,71640.8,-5.43,-5.97,-5.93,0,*50
1509246381.44,47758,9.44,71636.3,-5.45,-5.97,-6.01,0,*51
1509246382.66,47759,9.44,71644.5,-5.45,-5.97,-5.97,0,*5C
1509246383.92,47760,9.44,71648.5,-5.45,-5.97,-5.89,0,*59
1509246385.17,47761,9.44,71656.3,-5.45,-5.97,-5.89,0,*58
1509246386.43,47762,9.44,71656.3,-5.45,-5.97,-5.89,0,*5B
1509246387.68,47763,9.44,71652.3,-5.45,-5.97,-5.89,0,*5A
1509246388.9,47764,9.44,71650.0,-5.45,-5.97,-5.97,0,*52
1509246390.16,47765,9.44,71642.5,-5.43,-5.93,-5.93,0,*55
1509246391.38,47766,9.44,71650.0,-5.45,-5.97,-5.97,0,*50
1509246392.6,47767,9.44,71656.0,-5.45,-5.97,-5.97,0,*51
1509246393.83,47768,9.44,71648.0,-5.45,-5.97,-5.97,0,*5E
1509246395.05,47769,9.44,71638.5,-5.45,-6.01,-6.01,0,*5F
1509246396.24,47770,9.44,71628.3,-5.43,-5.97,-5.97,0,*51
1509246397.47,47771,9.44,71628.8,-5.45,-5.97,-5.97,0,*56
1509246398.69,47772,9.44,71618.5,-5.45,-5.97,-5.97,0,*55
1509246399.91,47773,9.44,71630.0,-5.45,-5.97,-5.97,0,*54
1509246401.14,47774,9.44,71634.0,-5.45,-5.97,-6.01,0,*5F
1509246402.36,47775,9.44,71634.0,-5.45,-6.01,-5.97,0,*5E
1509246403.58,47776,9.44,71640.5,-5.45,-5.97,-5.97,0,*51
1509246404.83,47777,9.44,71636.8,-5.45,-5.89,-5.97,0,*5F
1509246406.06,47778,9.44,71636.3,-5.43,-5.85,-5.97,0,*5A
1509246407.28,47779,9.44,71644.8,-5.45,-6.01,-5.97,0,*52
1509246408.53,47780,9.44,71652.5,-5.45,-5.89,-6.01,0,*5B
1509246409.78,47781,9.44,71646.5,-5.45,-5.89,-6.01,0,*5A
1509246411.0,47782,9.44,71668.5,-5.43,-5.97,-5.93,0,*58
1509246412.23,47783,9.44,71656.0,-5.43,-5.93,-5.97,0,*59
1509246413.45,47784,9.44,71650.5,-5.45,-5.97,-5.97,0,*5C
1509246414.68,47785,9.44,71642.3,-5.43,-5.85,-5.97,0,*58
1509246415.9,47786,9.44,71642.5,-5.45,-5.97,-5.97,0,*5E
1509246417.09,47787,9.44,71644.5,-5.43,-5.97,-5.97,0,*59
1509246418.32,47788,9.44,71636.3,-5.45,-6.01,-5.97,0,*5C
1509246419.54,47789,9.44,71648.8,-5.45,-5.97,-5.97,0,*51
1509246420.76,47790,9.44,71642.8,-5.45,-6.01,-5.97,0,*55
1509246422.02,47791,9.44,71636.8,-5.43,-5.93,-5.93,0,*5E
1509246423.24,47792,9.44,71648.0,-5.45,-5.97,-5.97,0,*5B
1509246424.49,47793,9.44,71662.8,-5.43,-5.93,-5.93,0,*5C
1509246425.72,47794,9.44,71658.5,-5.43,-5.93,-5.97,0,*5F
1509246426.94,47795,9.44,71660.0,-5.43,-5.93,-5.97,0,*5E
1509246428.2,47796,9.44,71664.5,-5.43,-5.93,-5.93,0,*59
1509246429.42,47797,9.44,71656.5,-5.45,-5.97,-6.01,0,*52
1509246430.67,47798,9.44,71642.3,-5.43,-5.93,-5.93,0,*57
1509246431.9,47799,9.44,71648.3,-5.43,-5.97,-5.93,0,*52
1509246433.12,47800,9.44,71652.8,-5.45,-5.97,-5.97,0,*5F
1509246434.35,47801,9.44,71662.5,-5.45,-5.97,-5.97,0,*5E
1509246435.6,47802,9.44,71658.0,-5.43,-5.93,-5.93,0,*5B
1509246436.79,47803,9.44,71668.5,-5.43,-5.97,-6.01,0,*56
1509246437.99,47804,9.44,71654.0,-5.43,-5.97,-5.97,0,*5D
1509246439.25,47805,9.44,71642.0,-5.45,-5.97,-5.89,0,*55
1509246440.5,47806,9.44,71658.0,-5.43,-5.93,-5.93,0,*5F
1509246441.72,47807,9.44,71652.0,-5.45,-5.97,-5.97,0,*58
1509246442.95,47808,9.44,71640.0,-5.43,-5.97,-5.85,0,*52
1509246444.2,47809,9.44,71648.5,-5.43,-5.93,-5.93,0,*50
1509246445.46,47810,9.44,71640.3,-5.43,-5.93,-5.93,0,*58
1509246446.68,47811,9.44,71650.3,-5.45,-5.97,-5.97,0,*5F
1509246447.94,47812,9.44,71644.3,-5.43,-5.93,-5.93,0,*5A
1509246449.19,47813,9.44,71646.5,-5.45,-5.97,-5.89,0,*52
1509246450.41,47814,9.44,71642.0,-5.43,-5.97,-5.93,0,*58
1509246451.64,47815,9.44,71646.3,-5.43,-5.93,-5.97,0,*59
1509246452.86,47816,9.44,71656.8,-5.43,-5.93,-5.97,0,*5A
1509246454.12,47817,9.44,71662.0,-5.43,-5.93,-5.93,0,*5F
1509246455.37,47818,9.44,71666.3,-5.43,-5.85,-5.93,0,*57
1509246456.63,47819,9.44,71666.0,-5.43,-5.93,-5.93,0,*51
1509246457.85,47820,9.44,71660.5,-5.43,-5.97,-5.93,0,*5F
1509246459.07,47821,9.44,71666.0,-5.43,-5.93,-5.97,0,*5E
1509246460.33,47822,9.44,71672.5,-5.43,-5.93,-5.93,0,*59
1509246461.58,47823,9.44,71670.3,-5.43,-5.93,-5.93,0,*58
1509246462.81,47824,9.44,71674.0,-5.45,-6.01,-5.97,0,*55
1509246464.06,47825,9.44,71678.8,-5.43,-5.93,-5.93,0,*5E
1509246465.28,47826,9.44,71674.3,-5.43,-5.97,-5.93,0,*59
1509246466.54,47827,9.44,71666.3,-5.43,-5.93,-5.93,0,*5C
1509246467.76,47828,9.44,71674.5,-5.43,-5.93,-5.97,0,*57
1509246469.02,47829,9.44,71666.3,-5.43,-5.93,-5.85,0,*55
1509246470.27,47830,9.44,71664.0,-5.43,-5.93,-5.93,0,*5A
1509246471.53,47831,9.44,71656.8,-5.43,-5.93,-5.93,0,*5B
1509246472.78,47832,9.44,71648.3,-5.43,-5.93,-5.93,0,*58
1509246474.04,47833,9.44,71648.5,-5.43,-5.93,-5.93,0,*59
1509246475.29,47834,9.44,71666.0,-5.43,-5.93,-5.93,0,*5E
1509246476.51,47835,9.44,71676.0,-5.43,-5.97,-5.93,0,*5B
1509246477.74,47836,9.44,71670.0,-5.43,-5.97,-5.93,0,*58
1509246478.99,47837,9.44,71672.3,-5.43,-5.93,-5.93,0,*5D
1509246480.25,47838,9.44,71664.5,-5.43,-5.93,-5.93,0,*52
1509246481.47,47839,9.44,71648.8,-5.43,-5.93,-5.97,0,*57
1509246482.73,47840,9.44,71654.8,-5.43,-5.93,-5.85,0,*5A
1509246483.99,47841,9.44,71648.8,-5.43,-5.93,-5.85,0,*5B
1509246485.24,47842,9.44,71666.3,-5.43,-5.93,-5.93,0,*5F
1509246486.49,47843,9.44,71666.0,-5.43,-5.93,-5.93,0,*5E
1509246487.77,47844,9.44,71678.3,-5.41,-5.93,-5.93,0,*5B
1509246489.06,47845,9.44,71672.3,-5.41,-5.93,-5.93,0,*5A
1509246490.31,47846,9.44,71642.0,-5.43,-5.93,-5.93,0,*5B
1509246491.56,47847,9.44,71644.3,-5.43,-5.93,-5.93,0,*5A
1509246492.84,47848,9.44,71652.0,-5.41,-5.93,-5.93,0,*57
1509246494.12,47849,9.44,71642.5,-5.41,-5.93,-5.93,0,*56
1509246495.41,47850,9.44,71628.5,-5.41,-5.93,-5.85,0,*59
1509246496.66,47851,9.44,71630.0,-5.41,-5.97,-5.85,0,*5C
1509246497.92,47852,9.44,71642.8,-5.41,-5.97,-5.93,0,*58
1509246499.2,47853,9.44,71662.5,-5.41,-5.93,-5.93,0,*5D
1509246500.45,47854,9.44,71662.0,-5.41,-5.97,-5.93,0,*5E
1509246501.7,47855,9.44,71664.3,-5.43,-5.93,-5.93,0,*59
1509246502.95,47856,9.44,71660.8,-5.41,-5.93,-5.97,0,*5C
1509246504.21,47857,9.44,71668.5,-5.43,-5.93,-5.85,0,*5C
1509246505.46,47858,9.44,71664.0,-5.43,-5.93,-5.93,0,*54
1509246506.72,47859,9.44,71640.0,-5.41,-5.97,-5.93,0,*53
1509246508.0,47860,9.44,71638.0,-5.41,-5.93,-5.93,0,*5D
1509246509.22,47861,9.44,71668.8,-5.41,-5.97,-5.97,0,*5C
1509246510.47,47862,9.44,71666.0,-5.41,-5.97,-5.93,0,*5B
1509246511.72,47863,9.44,71662.8,-5.41,-5.93,-5.97,0,*5A
1509246513.0,47864,9.44,71650.3,-5.41,-5.93,-5.93,0,*59